#timestamp,LO_Frequency,Hit,StdDev 
1616313615.7,286046986.7,N
1616313635.5,286046984.6,N
1616313655.4,286046982.3,Y
1616313675.2,286046990.9,P
1616313695.1,286046988.5,P
1616313696.0,286046988.5,P
1616313715.8,286046989.6,Y
1616313735.6,286046999.0,P
1616313755.5,286046996.7,N
1616313775.3,286046996.0,N
1616313795.2,286046994.6,N
1616313815.9,286046994.7,N
1616313835.7,286046994.0,N
1616313855.6,286046990.1,Y
1616313875.4,286046996.1,P
1616313895.2,286046992.1,P
1616313915.1,286046990.1,P
1616313916.0,286046990.1,Y
1616313935.8,286046999.2,P
1616313955.7,286046998.0,N
1616313975.5,286046995.1,N
1616313995.3,286046995.7,N
1616314015.2,286046996.0,N
1616314035.0,286046996.2,N
1616314035.9,286046996.2,N
1616314055.8,286046996.3,N
1616314075.6,286046994.6,Y
1616314095.4,286046995.0,P
1616314115.3,286046996.4,P
1616314135.1,286046993.8,P
1616314155.9,286046995.5,Y
1616314175.7,286046999.0,P
1616314195.5,286046997.0,N
1616314215.4,286046997.3,N
1616314235.2,286046996.2,N
1616314255.0,286046994.1,Y
1616314255.9,286046994.1,P
1616314275.8,286046994.9,P
1616314295.6,286046995.2,P
1616314315.5,286046993.5,Y
1616314335.3,286046999.5,P
1616314355.1,286046997.5,N
1616314375.9,286046998.0,N
1616314395.7,286046995.2,Y
1616314415.5,286046997.2,P
1616314435.4,286046997.0,P
1616314455.2,286046997.8,P
1616314475.1,286046995.3,Y
1616314476.0,286046995.3,P
1616314495.8,286046996.8,P
1616314515.6,286046997.7,N
1616314535.5,286046994.9,Y
1616314555.3,286046999.0,P
1616314575.2,286046996.7,P
1616314595.9,286046999.2,N
1616314615.7,286047001.0,N
1616314635.6,286046998.5,N
1616314655.4,286047000.7,N
1616314675.2,286046998.2,N
1616314695.1,286046998.6,N
1616314696.0,286046998.6,N
1616314715.8,286046998.4,N
1616314735.6,286046999.5,N
1616314755.5,286046999.5,N
1616314775.3,286047011.9,Y
1616314795.2,286046999.0,P
1616314815.9,286046999.3,P
1616314835.7,286046998.8,P
1616314855.6,286046999.2,Y
1616314875.4,286046997.0,P
1616314895.3,286046997.8,N
1616314915.1,286046994.9,P
1616314916.0,286046994.9,Y
1616314935.8,286046999.1,P
1616314955.7,286046999.5,N
1616314975.5,286046999.4,N
1616314995.3,286046996.9,Y
1616315015.2,286046999.3,P
1616315035.0,286046996.5,P
1616315035.9,286046996.5,N
1616315055.8,286046996.6,N
1616315075.6,286046996.6,N
1616315095.4,286046997.6,N
1616315115.3,286046997.5,N
1616315135.1,286046997.3,N
1616315155.8,286046996.8,Y
1616315175.7,286047002.4,P
1616315195.5,286047001.1,N
1616315215.4,286046999.0,N
1616315235.2,286046997.7,N
1616315255.0,286046995.5,N
1616315255.9,286046995.5,N
1616315275.8,286046995.2,N
1616315295.6,286046994.6,N
1616315315.4,286046993.5,N
1616315335.3,286046993.4,N
1616315355.1,286046994.1,N
1616315375.9,286046995.6,N
1616315395.7,286046995.7,N
1616315415.5,286046993.3,N
1616315435.4,286046993.4,N
1616315455.2,286046993.6,N
1616315475.0,286046994.6,N
1616315475.9,286046994.6,N
1616315495.8,286046992.7,N
1616315515.6,286046990.7,Y
1616315535.5,286046995.8,P
1616315555.3,286046997.9,P
1616315575.1,286046995.8,P
1616315595.9,286046993.3,Y
1616315615.7,286046998.8,P
1616315635.6,286046999.2,N
1616315655.4,286046999.2,N
1616315675.2,286047000.4,N
1616315695.1,286046999.8,N
1616315696.0,286046999.8,N
1616315715.8,286047000.6,N
1616315735.6,286047000.5,N
1616315755.5,286047000.8,N
1616315775.3,286046998.4,N
1616315795.1,286046998.5,N
1616315815.9,286046998.2,N
1616315835.7,286046999.0,N
1616315855.6,286047000.8,N
1616315875.4,286046997.3,N
1616315895.2,286046997.9,N
1616315915.1,286046996.7,N
1616315916.0,286046996.7,N
1616315935.8,286046997.7,N
1616315955.7,286046994.9,Y
1616315975.5,286046997.7,P
1616315995.3,286046997.8,P
1616316015.2,286046997.0,P
1616316035.9,286046998.8,N
1616316055.7,286046996.9,Y
1616316075.6,286046999.8,P
1616316095.4,286047000.3,N
1616316115.3,286046999.9,N
1616316135.1,286046998.5,N
1616316136.0,286046998.5,N
1616316155.8,286046999.4,N
1616316175.7,286047000.8,N
1616316195.5,286046998.7,N
1616316215.3,286046996.9,Y
1616316235.2,286046998.4,P
1616316255.0,286046999.5,N
1616316255.9,286046999.5,N
1616316275.8,286046997.7,Y
1616316295.6,286046997.4,P
1616316315.4,286046998.0,N
1616316335.3,286046996.2,P
1616316355.1,286046996.1,Y
1616316375.8,286046999.1,P
1616316395.7,286046999.0,N
1616316415.5,286046998.7,N
1616316435.4,286046998.2,Y
1616316455.2,286047002.8,P
1616316475.0,286047001.6,N
1616316475.9,286047001.6,N
1616316495.8,286047002.5,N
1616316515.6,286047002.6,N
1616316535.4,286047000.2,N
1616316555.3,286047000.7,N
1616316575.1,286047002.6,N
1616316595.9,286046998.6,N
1616316615.7,286047000.0,N
1616316635.5,286047000.3,N
1616316655.4,286047000.3,N
1616316675.2,286047000.5,N
1616316695.0,286047000.9,N
1616316695.9,286047000.9,N
1616316715.8,286046998.3,N
1616316735.6,286046998.1,N
1616316755.5,286047000.5,N
1616316775.3,286047000.8,N
1616316795.1,286047000.9,N
1616316815.9,286047000.7,N
1616316835.7,286047000.8,N
1616316855.5,286047000.9,N
1616316875.4,286046998.6,N
1616316895.2,286047000.7,N
1616316915.0,286047000.9,N
1616316915.9,286047000.9,N
1616316935.8,286046999.6,N
1616316955.6,286046996.5,N
1616316975.5,286046999.1,N
1616316995.3,286046999.3,N
1616317015.1,286046998.6,N
1616317035.9,286046999.0,N
1616317055.7,286046998.9,N
1616317075.6,286046996.9,N
1616317095.4,286046999.6,N
1616317115.2,286046999.0,N
1616317135.1,286046999.2,N
1616317136.0,286046999.2,N
1616317155.8,286046999.3,N
1616317175.6,286047001.0,N
1616317195.5,286046999.8,N
